Wind_Speed
38 38 38 40 41 41 41 42 45 48 50 51 53 54 54 53 52 50 48 46 45 46 44 42 40 39 37 36 34 32 30 27 23 24 29 29 26 24 23 25 25 23 24 25 22 21 21 18 17 17 18 20 23 26 28 29 30 33 34 30 29 31 30 28 28 28 28 27 27 28 28 28 28 27 25 24 23 23 24 24 25 25 25 25 24 22 21
40 42 42 42 43 45 44 42 44 47 49 50 52 54 55 55 53 51 50 47 45 45 44 43 42 40 39 37 35 34 33 30 24 23 25 26 26 25 24 25 26 26 25 25 24 22 20 19 20 20 20 21 22 23 24 24 24 26 28 29 31 33 32 31 32 32 30 28 27 28 29 29 29 29 28 27 26 25 25 25 25 26 26 26 26 25 24
37 41 44 44 44 45 45 44 45 47 48 49 51 52 54 55 54 53 51 49 47 46 45 44 42 41 39 38 36 33 32 29 26 24 24 26 26 26 25 24 25 26 26 26 26 25 23 21 22 22 23 23 22 23 24 23 23 23 25 27 30 32 33 34 34 34 32 31 29 29 29 30 30 30 30 30 29 27 27 27 27 27 27 27 27 28 27
33 35 38 40 43 46 47 47 47 47 47 48 50 51 52 52 52 51 50 49 47 46 45 44 43 42 39 37 35 34 32 30 29 28 26 26 27 27 27 25 25 25 26 26 27 27 26 24 22 21 22 23 23 24 26 24 23 23 23 23 24 26 29 32 33 33 32 32 31 30 30 31 30 30 30 31 31 30 29 29 28 27 27 28 29 29 29
32 32 33 35 38 42 44 47 49 47 45 47 47 47 49 50 49 48 47 47 47 47 45 43 42 42 40 37 36 35 33 31 32 32 31 29 28 27 26 26 26 26 26 26 27 28 29 28 26 22 21 23 24 25 26 25 23 22 22 22 22 23 26 28 30 31 31 31 31 32 32 32 32 32 31 31 31 31 31 31 30 29 29 29 30 30 30
35 34 33 32 35 36 37 41 46 45 42 44 44 43 44 44 46 47 48 47 47 47 46 43 41 40 39 38 38 37 35 33 32 32 33 33 31 29 27 26 26 27 27 27 28 28 28 29 28 26 24 24 26 26 26 25 24 22 20 21 21 23 25 26 27 28 28 29 31 32 34 33 33 33 33 32 32 32 33 33 32 32 31 31 31 32 32
37 37 35 32 33 36 36 37 41 43 42 43 43 42 42 41 42 45 47 48 48 47 46 44 42 40 39 39 39 39 38 36 34 33 33 33 33 31 29 27 26 27 28 29 29 30 29 29 28 27 26 26 28 28 27 27 26 24 23 22 21 20 21 23 25 25 26 28 30 32 34 35 35 34 33 33 34 34 34 34 34 34 33 32 32 32 32
37 38 38 35 34 37 38 39 41 43 44 44 45 45 45 44 43 43 45 46 47 46 46 45 44 42 41 39 38 38 38 38 37 35 33 32 32 32 30 28 26 26 27 29 30 30 30 30 29 28 28 29 29 29 28 27 27 25 25 24 23 20 18 18 19 19 20 24 28 30 31 32 32 33 33 34 36 36 35 34 35 35 34 33 32 32 32
37 38 39 38 36 37 39 41 41 41 42 43 44 45 46 47 46 45 46 47 47 46 45 45 43 42 42 40 38 35 35 36 37 36 34 33 32 31 31 29 27 26 26 27 29 30 30 29 29 29 30 30 30 29 29 29 28 26 26 26 25 25 23 20 19 17 17 19 22 25 28 28 28 29 30 31 33 35 35 35 35 35 34 34 34 34 35
32 35 37 39 38 37 38 39 40 40 40 41 41 42 44 46 47 48 49 50 51 49 47 46 45 44 43 41 38 36 34 34 35 36 35 33 32 31 30 30 29 28 27 26 27 29 30 30 30 30 30 31 31 30 30 29 28 27 27 27 26 27 27 26 25 24 21 20 18 18 20 24 26 27 28 30 31 33 34 34 34 34 34 34 35 35 35
26 29 33 36 38 38 37 37 38 39 39 41 42 42 42 43 44 46 48 50 51 51 49 47 46 47 48 46 42 39 37 35 35 35 35 34 33 32 32 31 31 31 30 29 28 28 29 30 30 31 31 31 31 31 31 30 30 29 28 28 27 27 28 29 29 29 27 25 23 20 18 19 23 25 27 29 31 31 32 33 34 35 35 35 35 36 36
23 25 27 31 35 37 37 37 37 38 39 40 40 39 39 38 37 40 42 42 43 46 46 43 39 39 43 46 46 44 42 40 39 39 39 38 37 36 35 35 34 34 34 33 31 30 30 30 30 31 32 32 32 32 32 31 31 30 29 29 29 29 29 29 30 30 29 28 27 25 23 23 24 24 24 25 26 26 27 29 32 34 35 35 34 35 36
21 23 25 27 29 32 34 35 36 37 37 37 37 37 36 36 35 37 39 39 40 40 41 41 39 37 35 36 38 40 41 40 39 40 41 42 40 40 40 39 38 37 37 37 35 33 32 31 31 31 31 31 32 33 33 33 32 32 31 30 30 30 30 29 30 30 31 30 29 28 28 27 27 27 26 25 23 22 22 24 25 26 29 32 33 34 35
19 21 24 26 27 29 31 32 33 33 34 34 35 36 36 37 38 40 42 43 43 42 41 42 44 44 41 37 34 34 35 38 38 38 40 42 41 40 40 41 41 40 39 39 38 37 35 34 34 33 32 31 32 32 33 33 34 34 33 32 32 32 32 31 31 31 32 32 31 30 30 31 30 30 30 29 27 24 23 23 22 21 21 24 29 32 34
19 20 22 24 26 27 29 30 31 31 32 33 34 34 35 37 39 41 42 44 44 45 45 43 44 45 45 45 43 39 37 37 37 38 40 42 43 42 40 40 41 41 41 40 40 40 39 38 37 36 35 34 34 33 33 34 34 35 35 35 34 34 33 33 33 33 33 33 33 32 33 33 32 32 32 33 33 32 29 27 25 24 22 22 24 27 29
17 19 20 22 24 25 27 28 29 29 30 31 32 33 34 36 38 40 42 43 44 45 45 45 45 46 46 47 47 44 41 39 38 38 41 43 45 47 46 45 44 44 43 43 43 43 43 42 41 41 40 39 38 37 36 36 36 36 36 36 36 36 35 35 35 35 35 35 35 34 35 35 34 33 33 34 35 36 36 34 31 29 28 27 27 27 27
15 16 18 19 21 23 25 26 27 28 28 29 30 31 32 33 35 37 39 41 43 45 46 46 46 46 46 49 49 46 44 43 42 42 42 43 45 46 48 49 49 49 48 48 47 46 45 45 45 45 44 44 43 42 41 40 39 39 39 38 38 37 37 37 37 37 37 37 36 36 36 36 36 36 35 35 35 36 38 39 37 35 33 32 32 32 31
17 18 19 19 20 21 22 24 25 26 27 28 29 30 31 32 34 35 37 39 40 42 44 45 46 44 42 44 48 48 45 45 45 45 45 46 46 46 46 47 48 49 49 49 49 48 47 47 47 46 46 46 46 45 44 43 43 42 42 41 41 40 40 39 39 39 39 39 39 39 38 38 37 37 37 37 37 37 38 39 39 38 38 37 37 36 36
19 20 20 21 22 23 23 23 24 25 26 27 28 29 30 31 32 34 36 38 39 40 41 41 42 42 41 40 42 44 43 42 43 45 47 48 47 47 47 47 47 47 48 48 49 49 48 48 48 48 47 47 47 47 47 46 45 44 44 44 43 43 42 42 42 42 41 41 41 41 40 40 40 39 39 39 39 39 39 39 39 40 39 40 40 40 40
20 20 20 21 23 24 25 25 26 26 27 28 29 30 30 31 32 33 35 37 39 40 41 40 40 41 41 40 40 41 40 39 39 42 44 45 45 45 46 47 47 47 47 48 48 49 49 50 50 49 49 49 49 49 48 48 47 46 45 45 45 45 45 45 44 44 44 43 43 42 42 42 42 42 42 42 41 41 41 41 41 41 41 41 41 41 42
21 22 22 22 23 24 25 26 27 28 29 30 31 31 32 32 32 33 34 35 37 39 40 41 41 42 42 42 41 41 41 39 38 38 39 41 43 44 44 45 46 47 47 47 48 49 50 51 51 51 51 51 50 50 49 49 48 47 47 47 47 47 47 47 46 46 46 45 45 45 44 44 44 44 44 44 44 44 44 44 43 43 43 43 43 42 42
24 24 24 25 25 26 26 27 28 29 30 31 32 33 34 34 35 35 35 35 36 37 38 39 40 41 42 42 43 43 42 41 39 38 38 40 43 45 46 46 46 47 47 47 47 48 49 50 51 52 52 52 52 51 51 51 50 49 49 49 49 49 49 49 48 48 48 48 48 47 47 46 46 46 46 46 46 46 46 46 46 46 46 45 45 45 44
27 26 27 27 28 29 30 30 31 31 32 33 33 34 35 36 37 37 38 38 38 38 39 39 39 39 40 40 41 42 43 43 42 40 39 40 42 44 46 47 47 48 48 49 49 49 49 50 50 51 51 52 52 52 52 52 52 52 51 51 51 50 50 50 50 50 50 50 50 50 50 49 49 49 49 49 48 48 49 48 48 48 48 48 47 47 47
31 30 30 31 31 32 33 34 34 34 34 35 35 35 35 36 37 38 40 41 41 41 41 40 40 41 41 41 41 41 42 43 43 43 43 42 43 43 44 44 46 48 49 51 51 51 51 51 51 51 51 51 51 52 52 53 53 53 52 52 52 52 51 51 51 51 51 51 52 52 52 52 51 51 51 51 51 50 51 51 50 50 50 50 49 49 49
35 35 35 35 35 35 35 36 36 36 36 36 36 36 36 37 37 38 39 41 43 43 43 43 43 42 43 43 43 43 42 42 43 43 44 44 44 45 45 45 46 47 49 51 52 53 53 53 52 52 52 52 52 52 52 53 53 54 53 53 53 53 52 52 52 52 51 51 51 52 52 52 53 52 52 52 52 53 52 52 52 53 53 52 52 52 51
38 39 39 39 38 38 37 38 38 39 39 39 38 38 37 37 37 37 38 39 41 43 44 45 45 45 44 45 45 44 44 43 43 42 42 42 43 44 45 47 48 49 49 50 51 52 53 54 54 53 53 53 53 53 53 53 53 54 54 54 54 54 53 53 52 52 52 52 51 52 52 52 53 53 53 53 53 53 54 54 53 54 54 54 54 54 53
39 40 40 40 39 39 39 39 39 40 40 41 40 40 39 39 38 38 38 38 40 42 43 44 45 45 46 46 46 45 45 44 44 43 42 42 42 43 44 45 46 48 50 51 51 52 52 53 54 54 54 54 54 54 54 54 54 54 54 54 54 54 54 53 53 53 53 53 53 53 53 53 54 54 54 54 54 54 54 54 54 55 55 55 55 55 55
39 39 39 39 39 39 39 40 40 40 40 41 41 42 42 42 42 41 40 40 40 42 43 44 44 44 45 45 46 45 45 44 44 44 44 43 43 44 44 44 44 45 47 49 50 52 52 53 53 53 53 53 53 53 54 54 54 55 54 54 54 54 53 53 53 53 53 53 53 53 54 54 54 54 54 54 54 54 55 55 56 56 56 56 56 56 56
39 39 39 39 39 39 39 40 40 41 41 42 43 43 43 43 43 43 43 42 41 42 43 44 45 44 44 45 45 45 45 44 44 44 45 45 45 45 44 44 45 45 45 45 46 48 50 52 54 54 54 53 53 53 53 53 53 53 53 53 53 53 53 52 52 52 52 52 52 53 53 53 53 53 53 54 54 55 55 56 56 57 57 57 57 57 57
38 38 39 39 39 39 39 39 40 40 41 42 43 43 42 42 42 43 43 43 43 43 43 44 45 46 47 47 47 47 47 47 46 46 46 46 46 46 45 45 46 46 46 45 45 45 46 48 50 52 53 54 54 54 53 53 53 53 53 52 52 52 51 51 51 51 51 51 51 51 52 52 52 52 52 53 53 54 54 55 56 56 57 57 58 58 58
39 40 40 41 42 42 42 41 41 41 41 42 43 43 42 42 42 42 42 43 44 44 44 44 45 46 47 48 48 49 49 49 49 48 48 47 47 46 46 46 46 46 47 46 46 45 45 44 45 46 49 51 53 54 54 54 54 54 54 53 53 53 52 52 52 52 51 51 51 51 51 51 51 52 52 52 53 53 54 54 55 55 56 57 58 58 59
41 42 42 42 42 42 43 43 43 43 43 43 43 44 44 43 43 44 44 44 45 45 45 45 45 46 46 47 47 48 49 50 50 49 49 48 47 46 46 47 47 47 47 47 47 46 46 45 45 44 45 46 49 51 52 53 53 53 53 54 54 54 54 54 54 54 53 53 53 53 53 53 53 53 54 54 54 54 54 55 55 56 56 57 58 59 59
41 42 42 42 42 42 42 43 43 44 44 44 44 44 44 43 44 44 45 45 45 44 44 44 44 45 45 45 45 46 46 48 49 49 48 48 48 48 48 48 48 48 48 48 48 47 47 46 46 45 45 45 46 47 49 50 50 51 51 52 52 53 54 54 55 55 55 55 55 55 55 55 55 55 55 56 56 56 56 56 57 57 58 59 59 60 60
41 41 41 41 41 42 42 42 42 43 43 44 44 44 44 43 43 44 45 45 43 42 42 43 44 44 44 44 43 44 44 44 46 47 47 47 48 49 49 49 49 49 48 48 48 48 48 47 47 46 46 46 47 47 47 47 47 48 49 49 50 51 51 52 52 53 53 54 54 54 55 55 55 56 56 56 56 57 57 57 58 58 59 60 60 61 61
40 40 39 39 38 38 39 39 39 40 41 42 43 43 44 44 45 46 47 47 46 44 44 44 44 44 44 44 44 44 44 43 43 44 45 46 46 47 47 47 47 47 48 49 49 49 48 47 47 46 47 47 47 47 47 46 46 46 46 47 47 48 48 49 49 50 50 51 51 52 52 53 53 54 54 55 55 56 56 57 58 58 59 60 60 61 62
39 38 37 37 37 36 36 37 37 38 39 40 41 42 43 44 45 46 47 48 48 47 46 45 45 44 45 45 45 45 45 45 44 44 45 45 45 44 44 44 43 44 46 48 49 48 47 46 46 47 47 48 47 47 46 46 45 45 45 46 46 46 46 46 46 46 47 47 47 48 48 49 49 50 51 51 52 53 54 55 56 56 57 58 59 60 61
37 37 36 36 36 36 36 36 37 37 37 38 39 41 41 41 42 42 43 43 44 44 45 45 45 45 45 45 45 45 45 45 44 43 43 44 44 43 43 43 42 43 45 47 48 48 46 46 46 47 47 48 48 47 46 45 44 44 44 45 45 45 45 44 44 44 43 43 43 44 44 45 46 47 48 48 49 50 51 51 52 53 54 55 56 57 58
36 36 36 36 37 37 37 37 37 37 37 36 37 38 39 39 39 38 38 39 40 41 42 42 43 44 44 44 44 44 45 44 41 40 41 41 41 41 42 43 44 44 44 45 47 47 45 45 46 46 46 46 46 47 47 46 45 44 44 45 45 45 44 44 44 43 43 43 43 44 44 45 46 47 48 48 49 49 50 50 51 52 52 53 54 55 56
33 34 35 35 35 35 34 35 36 37 38 38 38 38 39 39 39 37 36 36 37 38 39 39 39 40 41 42 43 44 44 44 42 41 42 42 41 41 42 44 44 44 44 44 45 46 45 45 46 45 45 45 45 45 45 46 46 46 46 46 46 46 46 46 46 46 46 46 47 47 47 48 48 48 49 49 49 50 50 51 52 52 53 53 54 55 55
32 33 33 32 31 30 29 30 31 34 36 38 39 39 40 41 41 40 38 37 37 37 37 37 37 37 38 39 41 42 43 43 43 42 42 42 43 44 44 44 44 44 44 44 43 42 42 42 43 44 44 44 44 43 43 43 44 45 46 47 47 47 48 48 48 48 48 48 48 48 48 48 48 49 49 49 50 51 51 52 53 53 54 54 55 56 56
31 30 29 28 28 28 29 30 31 33 35 37 39 40 42 43 43 42 41 39 38 36 36 37 37 36 36 36 38 40 41 41 41 41 41 41 42 42 43 43 43 44 44 44 44 42 41 40 40 41 42 43 43 43 42 42 42 42 43 45 46 47 48 49 49 49 49 49 48 48 48 48 49 49 49 49 50 50 51 52 53 53 54 55 55 56 57
27 26 26 27 28 29 31 33 34 35 35 36 37 38 40 43 44 44 42 41 39 36 35 35 36 36 35 35 35 37 39 39 39 39 39 39 40 40 40 40 40 40 42 43 44 44 43 42 41 41 41 42 43 44 43 42 41 41 41 41 42 43 44 45 47 47 48 48 48 48 47 47 47 46 47 47 48 49 50 50 51 52 53 54 55 56 57
24 24 25 27 29 31 32 33 33 33 34 35 37 38 38 40 42 43 42 40 38 36 34 33 33 34 34 33 33 35 37 38 37 37 37 38 38 39 39 38 37 37 38 41 44 45 44 42 41 41 41 42 43 43 43 42 41 41 40 40 40 40 40 40 41 42 43 43 44 43 43 43 43 43 44 45 46 47 48 49 50 51 52 53 55 56 57
23 24 26 28 30 30 31 30 30 31 33 36 39 39 37 36 38 40 40 38 36 34 33 32 31 31 31 30 30 32 34 34 34 35 35 36 36 37 37 38 37 36 36 37 40 43 44 41 38 36 37 38 39 40 41 40 39 39 40 40 39 39 39 39 39 40 40 40 40 40 40 41 41 42 43 44 45 46 47 48 49 51 52 53 55 56 57
22 24 27 28 28 27 26 25 26 29 32 34 34 33 32 31 33 36 37 37 34 32 31 30 29 29 29 29 29 29 29 30 32 33 34 34 35 35 35 36 36 36 35 35 37 40 42 41 37 34 34 35 36 37 38 38 38 38 39 39 39 39 39 39 39 39 39 39 39 40 40 40 41 41 42 43 44 45 46 47 49 50 52 53 55 56 57
21 24 26 26 24 23 22 22 24 26 26 25 23 22 22 25 28 32 35 36 34 30 28 27 27 27 29 31 30 27 25 26 27 27 28 30 32 33 34 35 35 35 34 34 35 37 38 38 37 35 35 35 36 36 37 37 38 38 38 38 38 38 38 39 39 39 39 39 40 40 40 40 41 42 43 44 45 46 46 47 48 49 50 51 52 53 54
21 23 24 23 22 21 19 19 20 20 16 11 10 13 17 22 25 29 32 32 30 27 26 26 26 26 26 26 24 21 20 20 20 18 18 19 23 27 31 34 35 34 34 34 34 34 35 35 35 35 34 35 35 35 36 36 37 37 37 37 38 38 38 39 39 40 40 40 40 41 41 41 42 43 44 45 46 47 47 47 48 48 48 49 50 50 51
19 21 21 21 22 21 19 16 17 17 12 4 3 9 15 19 22 26 28 28 25 24 24 25 26 26 23 21 21 21 21 21 20 18 17 17 18 20 22 25 27 28 29 29 29 29 30 31 31 32 32 32 32 33 34 35 36 36 37 37 38 38 39 39 40 40 41 41 42 42 43 43 44 45 46 47 48 48 49 49 49 49 48 48 48 49 49
17 19 19 19 20 21 18 15 15 16 15 10 7 9 14 19 22 23 23 23 23 23 23 23 24 24 21 20 21 22 24 24 24 23 22 22 22 21 20 19 20 21 23 24 24 25 26 27 28 29 30 31 32 33 34 35 36 36 37 38 38 39 40 40 41 42 42 43 43 44 44 45 45 46 47 48 49 50 51 51 51 51 50 49 49 49 49
15 16 17 17 17 18 17 15 13 14 15 13 11 12 15 19 20 20 19 19 20 22 22 22 22 21 21 20 21 21 21 22 23 23 23 22 22 23 23 23 23 22 23 24 24 25 26 27 28 29 30 31 32 33 34 35 36 37 37 38 39 40 41 41 42 43 44 44 45 46 46 47 47 48 49 50 51 52 52 53 53 52 51 49 48 48 49
14 14 14 15 15 15 15 15 13 12 11 10 10 11 13 15 16 18 19 18 18 18 20 22 24 24 23 23 22 20 20 20 20 21 21 21 21 21 23 24 25 26 26 26 27 27 28 28 29 30 30 31 32 33 34 35 36 37 38 39 40 41 41 42 43 44 45 46 46 47 48 49 50 51 52 52 52 51 51 52 52 51 50 49 48 48 50
14 13 12 12 12 12 13 13 13 11 8 5 6 8 10 12 13 14 14 14 14 14 15 18 22 23 23 21 20 19 19 19 20 20 21 22 23 23 24 25 25 26 27 28 28 29 29 30 30 31 32 32 33 34 35 36 37 38 39 40 41 42 43 43 45 45 46 47 48 49 50 51 52 52 51 50 50 49 49 49 49 49 48 48 48 48 50
Wind_Direction
207 210 206 204 207 210 209 208 208 210 211 213 215 216 217 220 222 223 225 226 227 229 230 230 231 231 232 232 230 227 225 226 229 228 224 223 223 225 225 225 228 228 223 222 225 228 228 225 220 219 222 223 222 222 226 231 235 234 229 228 228 227 226 226 224 225 224 220 218 220 219 217 216 217 216 217 220 225 227 226 223 219 216 214 213 216 221
205 209 210 208 208 208 209 210 210 211 212 213 216 218 219 219 221 222 224 226 226 228 229 229 230 230 230 232 232 231 231 233 236 233 228 226 225 226 227 225 226 229 229 226 226 229 231 228 225 225 226 227 228 228 229 231 234 233 231 231 231 228 226 224 224 225 225 223 221 222 222 220 217 217 217 216 217 221 226 227 226 224 223 220 216 213 213
210 206 206 207 208 207 208 211 212 213 214 214 215 218 220 221 222 223 225 227 227 229 229 229 229 229 230 232 233 233 232 232 232 231 230 229 228 228 229 228 227 229 231 229 227 228 230 230 229 229 228 230 234 236 237 235 233 231 231 234 234 230 225 222 222 224 225 225 224 224 225 223 220 218 218 217 216 219 223 227 228 226 226 225 223 219 215
225 216 208 204 204 205 208 212 214 214 213 214 215 217 219 221 222 223 225 226 227 228 229 230 229 229 229 231 232 233 233 232 230 228 228 231 233 234 234 233 232 232 232 232 230 229 228 229 231 231 231 231 232 234 236 237 236 235 234 234 236 235 232 228 227 227 227 227 226 226 226 225 223 222 220 219 218 219 221 225 228 228 227 227 227 226 223
230 228 220 210 204 204 207 212 216 215 212 213 216 218 219 221 222 223 224 226 227 228 229 230 230 230 231 232 233 233 233 232 231 229 229 231 234 238 239 238 237 237 237 235 234 232 231 231 232 231 231 230 230 233 234 233 236 238 235 234 234 236 237 235 233 234 233 231 230 228 225 224 225 225 225 224 222 221 221 224 227 229 229 229 229 229 227
228 229 225 217 211 209 208 210 215 217 215 214 217 221 223 224 223 223 224 226 228 229 230 231 231 231 232 233 235 235 235 233 233 233 233 233 236 239 243 243 240 239 239 238 237 235 234 235 233 231 232 231 231 234 235 233 236 239 237 237 237 238 238 236 234 237 237 235 232 229 227 225 224 226 229 230 228 225 224 224 226 228 230 231 231 232 231
227 227 226 220 213 212 211 210 214 219 219 217 218 222 225 226 225 224 224 226 228 230 232 232 232 233 234 234 236 237 238 237 237 237 237 237 238 239 243 246 244 242 240 239 238 237 235 235 234 232 232 232 231 234 235 234 237 240 242 244 244 242 240 235 234 237 238 237 235 233 231 228 227 230 232 232 231 229 227 225 226 228 230 232 235 236 236
227 227 228 226 220 216 215 213 213 217 221 221 221 222 223 224 225 225 225 226 227 228 230 232 233 235 236 236 238 240 241 241 241 240 240 240 241 240 242 246 247 245 242 239 239 238 236 235 235 234 234 233 232 234 235 236 239 242 245 247 246 246 243 235 233 236 239 240 238 236 235 233 232 234 235 233 231 230 229 228 228 229 230 232 236 239 240
229 230 231 231 226 219 217 216 215 218 221 222 223 225 227 227 227 228 229 229 229 230 230 231 233 235 237 238 239 241 243 244 244 243 242 242 242 242 243 246 247 246 244 241 240 240 239 237 236 236 237 236 235 235 236 238 240 241 243 244 244 246 247 243 240 239 240 241 239 236 234 232 232 233 233 232 231 230 231 232 232 233 232 232 233 236 239
229 232 233 233 230 224 217 215 216 218 220 221 223 226 229 230 230 230 230 231 230 230 231 232 233 236 238 238 239 239 241 242 243 242 240 240 242 243 243 245 247 247 245 243 241 241 241 240 238 238 239 239 239 239 238 239 240 239 239 242 242 243 245 246 246 245 245 246 245 240 234 228 226 228 231 232 233 233 235 236 237 238 239 237 235 236 238
228 231 233 234 235 233 227 220 218 217 219 222 223 224 224 227 229 229 231 231 230 229 230 232 234 237 239 239 239 238 238 239 241 241 240 239 242 244 245 245 246 246 246 245 244 244 243 242 241 240 241 242 242 242 241 242 242 240 239 240 242 243 242 241 242 244 247 248 247 246 243 235 230 231 233 235 236 237 238 239 239 239 241 240 238 237 238
228 230 233 233 235 239 240 238 234 230 228 229 229 227 224 224 227 229 232 235 235 232 232 234 237 238 238 240 241 241 241 243 244 245 245 243 244 247 247 246 245 245 245 244 242 242 243 243 242 241 241 242 243 244 244 244 245 245 243 241 243 245 245 243 240 242 246 248 246 246 248 247 243 240 238 237 237 239 241 242 242 241 242 241 239 238 239
227 229 231 232 234 237 241 244 245 245 244 244 243 241 238 237 239 240 240 244 244 241 239 239 239 239 239 239 240 242 244 245 245 247 248 247 247 247 247 246 244 242 242 241 240 238 239 241 242 241 241 242 243 244 245 246 247 248 248 246 245 247 248 247 246 245 246 248 249 250 250 250 249 247 243 240 240 243 246 247 248 248 245 242 239 239 240
225 226 228 230 232 234 237 240 243 246 247 247 248 249 249 248 249 249 248 249 250 248 246 244 242 243 244 242 241 244 247 244 242 243 245 246 245 244 243 242 241 239 239 239 239 237 236 237 240 241 240 241 242 244 245 246 247 248 249 248 248 248 249 249 249 248 248 249 250 252 253 254 254 253 250 247 247 249 251 253 255 256 253 246 241 239 240
224 224 226 228 230 233 235 238 240 241 242 243 245 246 248 247 247 247 248 248 249 248 247 246 245 245 246 246 245 247 247 243 241 241 243 243 241 239 238 238 238 237 237 237 238 238 237 236 238 240 240 240 240 241 243 245 246 247 248 249 249 249 249 250 250 250 250 251 251 252 253 255 257 257 256 255 254 254 254 255 256 256 256 254 248 242 241
226 226 227 229 231 233 235 237 239 239 240 241 242 242 242 242 242 242 243 244 245 247 246 246 246 246 246 246 247 247 244 242 242 242 242 242 241 240 238 238 239 240 240 240 239 240 239 239 239 240 241 241 240 240 240 242 244 246 248 249 250 250 250 250 250 251 251 252 253 253 253 254 256 257 257 258 257 256 256 256 256 256 255 254 253 251 249
233 232 232 232 233 234 236 237 239 239 239 239 239 239 239 238 238 238 239 240 242 243 245 245 246 246 246 246 247 247 245 244 245 245 244 244 243 243 242 242 242 243 244 243 243 242 241 241 240 241 241 242 242 241 241 241 242 244 246 248 249 251 251 251 250 251 251 252 253 253 253 254 255 256 257 257 258 258 258 257 256 257 256 254 254 255 255
237 238 238 238 238 238 239 238 239 239 239 239 239 240 239 238 237 237 238 239 240 241 242 243 244 245 246 246 247 249 249 247 246 246 246 245 245 245 245 245 244 244 244 244 244 244 243 242 241 241 241 242 243 243 242 242 241 242 243 245 247 248 250 250 251 251 251 251 252 253 253 254 254 255 256 256 256 257 257 257 257 257 257 256 256 256 257
239 241 241 242 243 244 244 244 243 243 242 241 240 240 241 240 239 238 238 239 241 242 243 243 243 244 246 246 245 246 248 247 244 244 244 245 245 245 246 246 246 244 243 243 243 243 243 243 242 242 241 242 242 242 242 242 242 242 242 243 244 245 247 248 249 250 251 251 251 253 254 255 255 255 256 257 257 257 257 258 258 258 258 257 257 258 259
243 245 245 245 245 246 247 247 247 247 247 246 244 243 242 241 241 240 240 239 240 242 244 245 244 244 246 246 244 243 244 243 241 241 241 242 243 243 244 244 244 243 242 241 241 241 241 242 242 242 241 241 242 242 242 242 242 242 242 242 243 243 244 245 247 248 250 251 251 251 253 254 256 256 257 257 258 259 259 259 259 260 260 259 259 258 258
253 255 255 254 253 252 251 250 249 248 249 250 250 249 248 246 244 243 242 241 241 242 243 244 244 244 245 246 245 243 243 243 241 239 237 236 236 237 238 239 240 240 240 240 239 239 239 240 240 240 240 240 240 241 241 242 242 243 243 242 242 242 243 243 245 246 248 249 250 251 251 252 253 255 256 256 257 258 258 258 258 259 259 260 260 260 259
258 261 263 263 263 263 261 258 255 252 250 249 250 251 251 251 250 248 246 245 244 243 243 244 244 244 244 245 245 245 245 245 244 240 236 234 234 233 234 235 236 237 238 238 238 238 239 239 239 240 240 240 240 240 241 241 241 241 242 242 243 243 243 243 243 244 245 247 248 249 250 250 251 251 253 254 255 256 256 257 257 257 258 258 258 259 259
261 264 265 267 269 270 269 266 262 258 255 252 250 249 250 251 252 252 251 249 248 246 244 244 244 244 244 244 245 245 245 245 245 243 239 236 235 235 235 235 235 236 237 238 239 239 239 239 240 240 241 241 241 241 242 242 242 242 242 242 243 243 244 244 244 243 244 244 245 247 248 249 249 250 251 252 252 254 255 256 256 257 257 257 258 258 258
263 264 266 268 271 271 271 269 266 263 260 257 255 252 251 250 251 252 253 254 253 251 249 247 245 244 244 243 243 243 244 244 244 243 241 239 237 237 237 237 236 236 236 237 239 240 240 240 240 241 242 242 242 242 242 243 243 243 243 243 243 243 244 245 245 245 244 244 245 245 246 247 248 249 250 251 251 252 253 254 256 256 256 257 257 258 258
262 263 265 268 270 271 271 270 268 266 264 261 259 256 253 251 251 252 253 253 254 254 254 253 251 249 246 245 243 243 243 243 243 243 243 242 240 239 238 238 237 236 236 236 237 239 240 240 240 240 241 242 242 243 243 243 244 244 245 245 245 245 245 245 245 246 246 246 245 245 246 247 247 248 249 249 250 251 251 252 254 255 256 257 257 258 258
266 267 269 271 272 273 272 271 270 269 268 266 264 262 259 256 253 252 252 252 252 252 253 254 254 253 252 249 247 245 244 244 244 244 244 244 243 242 241 240 239 239 238 237 238 238 240 241 241 241 241 242 242 243 244 244 244 245 245 246 246 246 246 246 246 246 246 246 246 246 246 246 247 248 248 249 250 251 251 252 252 253 255 256 257 258 258
269 269 270 272 273 273 272 271 270 270 269 268 267 265 263 260 258 256 254 252 251 250 250 251 252 253 254 253 251 249 247 246 246 246 246 246 245 244 243 242 242 242 241 241 240 240 240 241 242 242 242 243 243 243 244 244 245 245 246 246 246 247 247 247 247 247 247 247 247 247 247 247 247 247 248 249 249 250 252 252 253 253 253 254 255 257 258
270 270 270 270 270 270 269 269 269 268 268 267 266 265 264 263 262 261 259 256 251 248 247 248 249 250 251 252 252 251 250 249 248 248 248 248 248 247 246 245 245 244 244 243 243 242 241 241 242 243 243 244 244 244 245 245 246 246 246 246 247 247 248 248 248 248 248 248 248 248 248 248 248 248 248 249 249 250 251 252 253 253 254 254 254 255 256
272 272 271 271 270 269 268 267 267 266 266 265 265 265 265 264 264 263 262 259 254 249 246 246 246 245 245 248 251 252 253 252 252 251 250 249 249 249 248 248 248 247 246 245 245 244 243 242 242 243 243 244 244 245 245 245 245 246 247 247 248 248 248 249 249 249 249 249 249 249 249 249 249 249 249 249 249 249 250 250 251 252 253 254 254 255 255
274 273 273 272 271 270 269 267 266 265 264 263 263 263 263 264 263 262 260 258 256 252 248 246 244 243 243 245 248 250 251 252 252 252 252 252 251 250 249 249 249 249 248 248 247 246 245 245 244 244 244 244 245 245 246 246 246 246 247 247 248 248 249 249 249 249 249 250 250 250 250 250 250 250 250 250 250 250 250 250 251 252 253 254 254 255 255
274 274 273 272 271 270 269 268 266 265 263 261 260 260 261 261 261 260 258 256 255 254 252 249 247 246 245 245 246 247 249 250 251 251 252 252 252 252 251 251 250 249 249 249 249 248 247 247 246 246 245 245 245 246 246 247 247 247 247 247 248 248 248 249 249 249 250 250 250 250 251 251 251 251 251 251 251 251 251 251 251 252 252 253 253 254 254
276 275 273 272 271 269 268 267 266 265 263 261 260 260 260 259 259 258 258 257 256 255 254 252 251 249 247 246 246 246 246 247 248 248 248 249 250 251 251 252 251 250 249 249 249 248 248 247 246 246 246 246 246 246 247 247 247 248 248 248 248 248 249 249 249 249 250 250 250 251 251 251 251 251 251 251 251 251 252 252 252 252 252 253 253 254 254
277 276 275 274 272 270 269 267 265 264 263 262 260 260 259 258 257 257 257 257 255 253 252 252 251 250 249 248 247 247 246 245 245 245 245 246 247 247 248 249 251 251 250 250 250 249 248 247 246 245 246 246 246 247 247 247 248 248 249 249 249 249 249 249 249 250 250 250 250 251 251 251 252 252 252 252 252 252 252 252 252 253 253 253 254 254 254
278 277 276 275 274 272 270 268 265 263 261 260 259 258 257 256 254 254 254 253 251 250 251 251 251 250 249 248 247 247 247 246 245 245 244 243 244 244 244 246 247 248 249 250 249 249 248 247 246 244 243 244 245 246 246 247 248 248 249 249 250 250 250 250 250 250 250 251 251 252 252 252 253 253 253 254 254 253 253 253 253 253 253 254 254 254 255
281 279 278 277 275 273 271 268 266 263 261 258 257 255 254 253 251 251 251 251 251 251 252 252 252 251 250 249 248 247 247 246 245 245 244 244 243 243 243 243 244 244 246 248 248 249 249 249 247 245 243 242 243 244 245 247 247 248 249 250 250 250 250 250 251 251 251 251 252 252 253 253 254 254 255 255 255 255 255 255 255 255 255 255 255 255 255
284 282 281 279 277 275 273 270 267 264 261 258 256 254 253 251 250 250 250 251 251 251 250 250 250 250 250 249 248 247 247 247 246 245 245 246 246 246 245 244 242 242 243 245 247 247 248 249 248 246 245 243 243 243 244 245 246 248 249 250 250 251 251 251 251 251 251 252 252 253 254 254 255 255 256 256 257 257 257 258 258 258 258 258 257 257 257
287 285 283 282 280 278 276 273 270 267 263 260 256 254 252 251 250 250 249 249 249 248 247 246 246 246 246 247 246 246 246 248 248 247 247 247 248 248 247 245 243 241 241 243 244 245 246 247 247 247 246 246 245 244 244 244 244 246 248 249 250 250 251 251 251 252 252 253 254 255 256 256 257 258 258 259 259 260 260 260 261 261 261 261 261 261 261
287 286 284 283 281 280 278 275 271 267 264 260 257 253 251 250 249 249 249 248 247 246 244 244 243 243 244 244 244 244 245 246 246 246 245 245 246 246 246 245 243 242 241 242 243 244 245 246 246 246 247 247 247 246 246 245 244 245 246 247 249 249 250 251 252 252 253 254 256 257 258 260 261 261 262 262 262 263 263 263 263 263 263 264 264 263 263
289 289 288 286 284 281 278 274 270 266 263 260 256 253 250 248 247 248 248 248 247 246 245 244 244 243 242 242 243 244 244 245 245 245 245 244 244 244 244 244 244 243 243 243 243 242 242 243 245 246 247 247 248 248 249 248 248 248 248 249 250 251 251 252 253 255 256 257 258 259 261 261 262 263 264 265 265 266 266 267 267 267 267 267 266 266 266
294 293 291 289 286 283 280 277 273 269 265 262 258 255 252 249 248 248 248 247 247 247 246 245 245 245 243 242 241 242 243 244 245 246 246 245 245 245 245 246 245 244 244 246 245 243 242 243 245 246 247 248 249 249 250 250 249 249 250 251 251 252 253 254 255 256 258 259 260 261 262 263 264 265 266 267 269 269 270 271 271 272 271 271 271 270 270
298 295 292 290 287 285 282 280 277 274 271 268 264 259 254 251 248 247 246 245 245 245 246 245 246 246 245 243 241 240 241 242 243 244 246 246 245 246 247 248 248 246 245 246 247 246 245 245 245 246 247 248 249 249 250 250 250 251 251 252 253 254 254 255 256 257 258 259 261 262 263 264 265 267 268 269 270 271 272 272 273 274 274 274 274 273 273
301 297 294 292 290 288 286 284 281 277 274 272 269 264 258 252 247 245 244 242 241 241 243 244 244 245 245 245 243 241 240 240 241 243 244 245 246 246 247 248 250 249 247 246 247 247 246 245 245 246 247 248 247 247 249 251 252 252 253 254 255 255 255 256 256 257 258 259 260 262 263 264 265 265 266 268 269 270 271 272 272 273 273 274 274 274 274
305 302 300 298 296 294 291 288 283 277 272 270 269 267 262 253 245 240 238 236 235 235 238 242 243 243 244 245 245 243 241 241 241 242 243 244 245 245 246 247 249 250 249 247 246 246 247 248 247 246 246 246 245 246 247 250 251 252 252 253 253 253 254 254 255 255 256 257 258 259 260 261 261 262 264 265 267 268 270 271 272 273 273 274 275 275 275
311 310 308 305 302 300 296 292 285 279 274 271 268 266 261 252 241 233 229 227 227 229 233 238 241 241 241 244 246 245 242 241 242 242 242 243 244 245 246 247 249 249 249 248 245 244 246 248 248 246 245 245 246 245 246 249 250 249 250 250 251 252 253 253 254 255 255 256 256 257 257 258 259 260 262 265 268 270 272 274 276 277 278 279 280 280 280
317 317 315 312 309 306 302 298 295 292 286 278 270 262 253 242 232 225 219 216 217 221 228 233 235 235 234 237 240 240 238 238 241 243 243 243 244 244 245 246 246 245 245 246 245 243 244 246 248 247 247 247 247 246 246 248 248 248 249 250 251 252 252 253 253 254 255 255 255 256 256 258 259 262 264 267 270 272 275 278 280 281 283 284 284 284 284
324 325 323 322 322 319 314 309 309 306 297 283 268 251 234 222 216 213 209 207 208 213 219 224 225 223 221 224 228 231 231 232 236 240 243 244 244 244 244 245 245 244 244 245 244 243 244 245 246 247 248 248 247 246 247 247 248 248 248 249 249 250 251 251 252 252 253 254 254 255 257 259 261 264 266 268 270 272 275 277 280 282 284 286 287 287 287
332 333 333 335 337 336 329 323 325 326 318 293 257 226 206 199 200 201 200 199 201 204 209 215 217 215 213 213 217 221 223 224 225 229 235 240 243 243 243 244 245 245 245 245 245 244 245 245 245 246 246 247 246 246 246 246 246 247 247 247 248 248 249 250 251 252 253 254 255 257 258 261 263 265 267 268 270 271 273 275 278 281 283 286 287 288 289
336 340 342 345 348 349 345 342 347 357 6 8 203 191 183 181 185 187 188 189 191 195 201 208 211 212 214 217 221 225 231 236 240 243 246 251 252 250 245 242 240 240 241 242 244 245 246 246 245 245 245 245 244 244 245 245 245 246 246 247 248 249 250 252 253 254 255 256 257 258 260 262 264 266 267 269 270 271 272 274 276 279 281 284 286 288 289
340 344 348 351 354 357 357 358 7 20 34 58 106 146 157 163 169 174 179 184 188 192 200 210 217 220 224 230 232 235 240 247 252 255 255 256 257 257 256 252 247 244 243 244 245 246 247 247 246 246 246 245 245 245 245 246 246 247 248 249 250 251 252 253 254 255 256 257 258 260 261 263 265 267 269 271 271 272 272 273 275 277 280 283 285 287 289
343 347 351 354 357 1 4 8 17 28 42 62 92 122 142 154 163 169 175 182 188 195 205 217 225 226 226 227 229 233 239 245 249 252 253 253 252 253 255 255 255 253 251 249 248 248 249 248 248 247 247 246 246 246 246 247 247 248 249 250 251 252 254 255 256 257 258 259 260 262 263 265 267 270 272 273 274 274 273 273 274 276 279 282 283 285 287
343 346 351 355 358 2 7 14 21 31 46 68 94 119 139 157 169 174 177 183 193 205 215 222 225 224 223 225 229 234 237 239 242 246 248 248 248 247 248 249 250 250 251 250 250 250 251 251 251 251 251 250 250 250 250 250 251 251 252 253 254 255 256 257 259 260 261 262 263 265 266 268 270 273 274 275 275 275 274 274 275 276 279 282 283 284 286
341 343 347 351 355 0 7 13 19 26 41 73 113 134 152 169 182 187 191 199 209 218 221 224 225 225 224 226 230 234 236 239 242 246 249 250 250 250 249 249 249 249 250 251 251 252 252 253 253 253 254 254 255 255 255 256 256 256 256 257 258 258 259 261 262 263 264 265 266 268 269 271 273 274 275 275 275 275 275 275 275 277 279 282 284 284 285
Height
5797 5798 5801 5803 5807 5811 5814 5818 5820 5822 5825 5827 5829 5831 5833 5835 5838 5841 5843 5846 5849 5852 5855 5857 5860 5861 5863 5864 5867 5870 5871 5871 5872 5873 5874 5875 5877 5879 5881 5884 5886 5888 5890 5891 5890 5890 5891 5894 5896 5898 5900 5901 5902 5902 5903 5904 5906 5907 5908 5910 5912 5914 5915 5917 5919 5919 5921 5923 5925 5927 5928 5929 5931 5932 5934 5935 5936 5938 5940 5942 5943 5943 5944 5944 5945 5947 5949
5793 5795 5798 5801 5804 5809 5812 5816 5819 5820 5822 5824 5826 5829 5831 5833 5836 5838 5841 5843 5846 5849 5851 5854 5856 5858 5860 5862 5864 5866 5868 5869 5870 5871 5872 5873 5874 5876 5879 5882 5884 5886 5888 5889 5890 5889 5890 5892 5894 5895 5897 5898 5900 5900 5901 5903 5904 5905 5906 5907 5909 5910 5911 5912 5913 5915 5917 5920 5922 5924 5926 5927 5928 5930 5931 5932 5933 5935 5937 5939 5941 5942 5943 5943 5944 5944 5945
5791 5792 5794 5797 5802 5806 5810 5813 5816 5818 5820 5822 5824 5826 5828 5831 5834 5836 5838 5841 5844 5846 5848 5850 5853 5856 5858 5860 5862 5863 5865 5866 5868 5869 5869 5870 5872 5874 5876 5879 5882 5883 5885 5887 5888 5889 5890 5891 5892 5894 5895 5896 5898 5899 5900 5901 5902 5903 5903 5904 5905 5906 5906 5907 5908 5910 5912 5915 5918 5920 5922 5924 5926 5927 5928 5929 5930 5932 5934 5936 5938 5939 5941 5942 5942 5942 5943
5789 5791 5792 5794 5798 5803 5806 5809 5812 5814 5816 5819 5821 5823 5826 5828 5831 5834 5837 5839 5842 5844 5846 5848 5851 5853 5855 5857 5858 5860 5862 5864 5865 5867 5868 5868 5869 5871 5874 5876 5879 5881 5882 5884 5886 5887 5889 5890 5891 5893 5894 5895 5896 5897 5897 5898 5899 5901 5902 5902 5903 5903 5904 5904 5905 5907 5910 5912 5913 5916 5918 5920 5923 5924 5925 5926 5927 5929 5931 5933 5935 5936 5938 5939 5940 5940 5941
5788 5790 5791 5793 5796 5799 5802 5804 5807 5810 5812 5815 5818 5820 5824 5827 5830 5833 5835 5837 5839 5841 5843 5846 5848 5850 5852 5854 5855 5857 5859 5860 5862 5864 5865 5866 5867 5869 5871 5873 5876 5877 5879 5881 5882 5884 5886 5886 5888 5890 5892 5893 5894 5895 5895 5896 5897 5898 5900 5900 5901 5902 5902 5903 5904 5906 5907 5909 5910 5912 5914 5916 5919 5921 5922 5923 5924 5925 5927 5929 5931 5933 5934 5935 5937 5937 5938
5787 5789 5790 5792 5794 5796 5797 5800 5804 5807 5809 5812 5815 5819 5822 5825 5828 5830 5832 5834 5837 5839 5841 5843 5845 5847 5849 5850 5852 5853 5855 5857 5859 5861 5862 5864 5866 5867 5869 5870 5872 5874 5876 5878 5879 5880 5882 5883 5885 5887 5889 5889 5890 5891 5893 5894 5895 5895 5897 5898 5899 5900 5900 5901 5902 5903 5904 5906 5907 5909 5910 5912 5914 5916 5918 5920 5921 5922 5923 5925 5927 5928 5930 5931 5933 5935 5936
5785 5787 5789 5791 5791 5792 5795 5799 5802 5804 5807 5810 5813 5816 5819 5822 5824 5827 5829 5831 5834 5836 5838 5840 5842 5843 5845 5847 5848 5849 5851 5854 5857 5859 5860 5862 5864 5865 5867 5868 5869 5871 5873 5875 5876 5877 5878 5880 5881 5883 5885 5886 5887 5888 5890 5891 5891 5893 5894 5895 5896 5897 5897 5899 5901 5901 5902 5903 5904 5906 5907 5908 5910 5912 5914 5915 5916 5917 5919 5920 5922 5924 5926 5928 5930 5933 5935
5783 5785 5787 5788 5790 5792 5794 5797 5799 5801 5804 5806 5809 5812 5815 5817 5820 5823 5826 5828 5830 5832 5834 5836 5838 5840 5842 5844 5845 5846 5848 5850 5853 5856 5858 5859 5861 5862 5864 5865 5866 5868 5870 5872 5873 5874 5875 5876 5878 5880 5882 5883 5884 5885 5886 5887 5889 5891 5892 5893 5894 5895 5895 5897 5898 5899 5900 5901 5902 5903 5904 5906 5908 5909 5910 5911 5912 5913 5915 5916 5917 5919 5922 5925 5928 5930 5932
5782 5783 5784 5786 5789 5791 5793 5795 5796 5798 5800 5803 5806 5809 5811 5814 5817 5820 5823 5826 5828 5829 5830 5832 5834 5836 5838 5840 5842 5843 5845 5846 5849 5852 5855 5856 5858 5859 5861 5862 5863 5864 5866 5868 5869 5870 5872 5874 5875 5877 5878 5879 5881 5882 5884 5885 5886 5888 5889 5890 5892 5893 5893 5895 5896 5897 5898 5899 5900 5901 5901 5903 5905 5907 5907 5908 5909 5910 5911 5912 5914 5916 5919 5922 5924 5925 5926
5780 5781 5782 5783 5786 5789 5791 5793 5795 5795 5797 5799 5802 5806 5808 5810 5813 5816 5819 5822 5823 5825 5827 5828 5830 5832 5833 5836 5838 5840 5841 5843 5845 5847 5850 5852 5854 5856 5857 5858 5859 5860 5862 5864 5865 5866 5868 5870 5871 5873 5874 5876 5878 5879 5881 5883 5884 5886 5887 5888 5889 5890 5891 5892 5893 5894 5896 5897 5898 5898 5898 5900 5903 5904 5905 5906 5907 5908 5909 5911 5913 5915 5917 5920 5921 5922 5922
5778 5779 5780 5782 5784 5786 5789 5791 5792 5793 5794 5795 5798 5802 5804 5807 5809 5812 5814 5816 5818 5821 5823 5825 5826 5827 5828 5830 5832 5835 5838 5839 5841 5842 5844 5847 5849 5851 5853 5854 5855 5856 5858 5860 5861 5862 5863 5865 5867 5869 5870 5872 5873 5875 5877 5879 5881 5883 5884 5886 5886 5887 5888 5889 5891 5892 5893 5895 5896 5896 5897 5898 5900 5902 5903 5904 5904 5906 5907 5909 5910 5912 5914 5916 5919 5920 5919
5776 5777 5778 5780 5781 5783 5785 5786 5788 5789 5791 5793 5796 5798 5801 5803 5806 5807 5809 5810 5813 5816 5819 5821 5822 5822 5823 5825 5827 5831 5833 5835 5836 5837 5839 5842 5845 5846 5848 5850 5851 5852 5854 5856 5858 5859 5859 5861 5863 5865 5866 5868 5869 5871 5873 5874 5876 5878 5880 5882 5883 5884 5884 5886 5888 5889 5890 5891 5892 5894 5895 5895 5897 5899 5900 5901 5902 5903 5904 5905 5906 5908 5909 5912 5914 5916 5916
5775 5776 5777 5778 5779 5780 5782 5783 5784 5786 5788 5790 5792 5793 5796 5799 5801 5802 5804 5805 5807 5811 5814 5817 5818 5818 5819 5822 5824 5825 5827 5829 5830 5832 5833 5836 5839 5841 5843 5845 5847 5848 5849 5851 5854 5855 5856 5857 5858 5860 5862 5864 5865 5867 5868 5870 5871 5873 5875 5877 5879 5880 5881 5882 5884 5886 5887 5888 5889 5890 5891 5892 5894 5895 5897 5898 5899 5900 5901 5901 5902 5904 5905 5907 5909 5910 5911
5773 5774 5775 5776 5777 5778 5779 5780 5781 5783 5785 5786 5787 5788 5791 5794 5796 5797 5800 5801 5803 5806 5808 5811 5812 5813 5815 5818 5819 5820 5822 5823 5825 5826 5828 5831 5833 5836 5838 5840 5841 5843 5844 5847 5849 5851 5853 5854 5855 5856 5858 5860 5862 5863 5864 5865 5867 5868 5870 5872 5874 5876 5877 5879 5881 5882 5884 5885 5886 5887 5887 5888 5889 5891 5893 5894 5895 5896 5897 5898 5899 5900 5901 5902 5903 5905 5905
5771 5772 5773 5774 5775 5775 5777 5778 5779 5781 5782 5782 5784 5785 5787 5789 5790 5792 5795 5796 5798 5800 5803 5805 5807 5809 5811 5813 5814 5816 5818 5819 5820 5821 5822 5825 5827 5830 5833 5835 5836 5837 5840 5842 5844 5846 5848 5850 5851 5852 5854 5856 5858 5859 5860 5861 5863 5864 5865 5867 5870 5872 5874 5875 5877 5878 5879 5881 5882 5883 5884 5884 5885 5887 5888 5890 5891 5892 5893 5894 5895 5897 5898 5899 5899 5900 5901
5769 5770 5771 5772 5773 5774 5775 5775 5776 5778 5779 5780 5781 5783 5783 5785 5786 5788 5790 5791 5793 5794 5797 5800 5802 5804 5805 5807 5808 5810 5812 5814 5814 5815 5817 5819 5821 5824 5827 5829 5831 5832 5834 5836 5838 5840 5842 5845 5847 5848 5849 5851 5853 5855 5856 5857 5858 5859 5861 5863 5865 5867 5869 5871 5872 5874 5875 5876 5877 5879 5880 5881 5881 5882 5884 5885 5887 5888 5889 5890 5892 5893 5894 5895 5896 5896 5897
5767 5768 5769 5770 5770 5771 5772 5773 5774 5775 5776 5777 5778 5779 5780 5781 5783 5784 5785 5787 5788 5790 5791 5793 5795 5797 5798 5799 5801 5803 5806 5807 5808 5809 5811 5814 5816 5818 5821 5823 5825 5827 5828 5830 5832 5835 5836 5839 5841 5843 5844 5846 5847 5849 5851 5853 5854 5855 5857 5858 5860 5862 5864 5865 5867 5868 5870 5871 5872 5874 5876 5877 5877 5878 5880 5881 5882 5883 5884 5886 5888 5889 5890 5891 5892 5893 5893
5765 5765 5766 5767 5767 5768 5769 5770 5771 5772 5773 5774 5775 5775 5776 5778 5779 5780 5781 5782 5783 5785 5785 5787 5789 5790 5792 5793 5795 5796 5799 5801 5803 5804 5806 5808 5810 5813 5814 5816 5818 5820 5822 5824 5827 5829 5831 5832 5834 5837 5839 5840 5841 5843 5845 5847 5849 5851 5852 5854 5855 5857 5858 5859 5861 5863 5864 5866 5867 5869 5870 5872 5873 5874 5875 5877 5878 5880 5881 5881 5883 5884 5886 5887 5887 5888 5889
5762 5762 5763 5764 5765 5765 5766 5767 5768 5769 5770 5770 5771 5772 5772 5773 5775 5776 5777 5778 5779 5779 5780 5782 5784 5785 5787 5788 5789 5791 5792 5794 5797 5798 5800 5802 5804 5806 5808 5809 5811 5814 5816 5819 5821 5823 5825 5826 5828 5830 5832 5834 5836 5837 5838 5840 5843 5845 5847 5848 5850 5852 5853 5854 5855 5857 5859 5860 5862 5863 5865 5866 5868 5869 5871 5872 5873 5875 5876 5877 5878 5879 5881 5882 5883 5883 5884
5759 5759 5760 5761 5761 5762 5763 5764 5765 5765 5766 5766 5767 5768 5768 5769 5770 5771 5772 5773 5774 5775 5775 5777 5778 5780 5781 5782 5784 5786 5787 5789 5791 5793 5795 5797 5798 5800 5802 5803 5805 5807 5810 5812 5814 5816 5818 5819 5821 5823 5825 5827 5829 5831 5833 5835 5837 5839 5841 5842 5844 5846 5847 5849 5850 5851 5853 5855 5857 5858 5860 5861 5863 5864 5865 5867 5868 5869 5870 5872 5872 5873 5875 5876 5877 5878 5879
5755 5756 5756 5757 5757 5758 5759 5760 5761 5761 5762 5762 5762 5763 5764 5765 5765 5766 5767 5768 5769 5770 5770 5771 5773 5774 5775 5776 5778 5780 5782 5784 5786 5788 5790 5792 5793 5794 5796 5797 5799 5801 5803 5805 5807 5809 5810 5812 5814 5816 5818 5820 5823 5825 5827 5829 5831 5833 5834 5836 5837 5839 5841 5843 5844 5846 5848 5849 5851 5852 5854 5856 5857 5859 5860 5861 5862 5863 5865 5866 5867 5868 5869 5870 5871 5872 5873
5752 5752 5752 5752 5753 5754 5754 5755 5756 5757 5757 5758 5758 5758 5759 5759 5760 5761 5762 5763 5764 5765 5766 5767 5767 5768 5769 5770 5772 5774 5775 5777 5780 5782 5784 5786 5787 5788 5789 5791 5794 5796 5798 5799 5800 5802 5803 5805 5807 5809 5811 5813 5816 5818 5821 5823 5825 5827 5828 5829 5830 5832 5834 5836 5839 5840 5842 5843 5844 5846 5848 5849 5851 5853 5854 5855 5856 5857 5858 5860 5861 5862 5863 5864 5865 5866 5867
5749 5748 5748 5748 5748 5748 5749 5750 5750 5751 5752 5752 5753 5753 5753 5754 5754 5755 5755 5757 5758 5760 5761 5762 5763 5763 5764 5765 5766 5767 5769 5771 5773 5775 5778 5779 5781 5782 5784 5786 5788 5790 5791 5792 5793 5794 5796 5798 5800 5802 5804 5807 5809 5811 5813 5815 5817 5819 5821 5823 5824 5825 5827 5829 5831 5834 5836 5837 5839 5840 5841 5843 5844 5846 5847 5849 5850 5851 5852 5853 5855 5856 5857 5857 5858 5859 5860
5744 5744 5743 5743 5743 5743 5743 5743 5744 5744 5745 5746 5747 5748 5748 5749 5749 5749 5750 5750 5751 5752 5754 5756 5757 5758 5759 5760 5760 5761 5763 5765 5767 5769 5771 5773 5775 5776 5779 5781 5782 5783 5784 5785 5786 5787 5789 5791 5794 5796 5798 5800 5802 5804 5806 5808 5810 5812 5814 5815 5817 5819 5820 5822 5824 5826 5828 5830 5832 5834 5835 5836 5838 5839 5840 5842 5843 5845 5846 5847 5848 5849 5850 5851 5852 5852 5853
5738 5738 5738 5738 5737 5737 5737 5737 5737 5737 5738 5739 5740 5741 5742 5743 5743 5744 5744 5744 5745 5746 5747 5748 5749 5751 5752 5753 5755 5756 5758 5759 5761 5762 5764 5766 5768 5771 5773 5774 5774 5775 5776 5778 5779 5781 5782 5784 5787 5789 5790 5792 5794 5796 5798 5800 5802 5804 5805 5807 5809 5811 5813 5815 5817 5819 5821 5823 5825 5827 5828 5829 5831 5832 5833 5834 5835 5837 5838 5840 5840 5841 5842 5843 5844 5845 5846
5733 5732 5732 5732 5731 5731 5731 5731 5731 5730 5730 5731 5732 5733 5735 5736 5737 5738 5739 5739 5739 5740 5740 5741 5741 5743 5744 5746 5747 5749 5751 5753 5754 5756 5757 5759 5761 5763 5765 5765 5766 5768 5769 5771 5773 5774 5776 5778 5780 5782 5784 5786 5787 5789 5791 5792 5794 5796 5798 5800 5801 5803 5806 5808 5810 5812 5814 5816 5817 5819 5821 5822 5823 5824 5825 5827 5828 5829 5830 5832 5833 5834 5834 5835 5836 5837 5838
5727 5727 5726 5726 5725 5725 5725 5725 5725 5724 5724 5724 5725 5725 5726 5728 5729 5730 5732 5733 5733 5734 5734 5734 5735 5736 5737 5738 5740 5742 5744 5745 5747 5749 5750 5752 5754 5755 5756 5758 5760 5762 5763 5764 5766 5768 5770 5772 5773 5775 5777 5779 5781 5782 5783 5785 5787 5788 5790 5792 5794 5796 5798 5801 5803 5804 5806 5808 5809 5811 5812 5814 5815 5816 5818 5819 5821 5822 5823 5823 5825 5826 5827 5827 5828 5830 5831
5721 5721 5720 5719 5719 5718 5718 5718 5718 5718 5718 5718 5718 5718 5719 5720 5721 5722 5723 5724 5726 5727 5727 5728 5729 5729 5730 5731 5732 5734 5736 5738 5740 5742 5743 5745 5746 5747 5749 5751 5753 5754 5755 5757 5759 5761 5763 5765 5766 5768 5770 5772 5774 5775 5777 5778 5780 5781 5783 5784 5786 5788 5790 5792 5794 5796 5798 5799 5801 5802 5804 5805 5806 5808 5810 5811 5813 5814 5815 5816 5816 5817 5818 5819 5821 5822 5823
5714 5714 5713 5712 5712 5712 5712 5711 5711 5711 5711 5711 5711 5711 5712 5712 5713 5714 5715 5715 5717 5719 5720 5721 5722 5723 5724 5725 5726 5728 5729 5731 5733 5734 5735 5737 5738 5740 5742 5744 5745 5746 5748 5749 5751 5754 5756 5757 5759 5761 5763 5765 5767 5768 5770 5771 5772 5774 5775 5777 5779 5781 5782 5784 5786 5788 5789 5791 5792 5794 5795 5796 5798 5800 5801 5803 5804 5805 5807 5808 5808 5809 5810 5811 5812 5814 5815
5707 5707 5706 5705 5705 5705 5704 5704 5704 5704 5704 5704 5704 5704 5704 5705 5705 5706 5707 5707 5708 5710 5712 5713 5715 5716 5717 5719 5720 5721 5723 5724 5726 5727 5728 5729 5731 5733 5735 5736 5737 5738 5740 5742 5744 5746 5748 5750 5752 5754 5756 5757 5759 5760 5762 5764 5765 5767 5769 5770 5772 5773 5775 5776 5778 5779 5781 5782 5784 5785 5787 5788 5790 5791 5793 5794 5795 5797 5798 5799 5800 5802 5802 5803 5804 5805 5805
5700 5700 5699 5698 5698 5697 5697 5696 5696 5696 5696 5697 5697 5697 5697 5698 5698 5698 5699 5700 5701 5702 5703 5705 5707 5709 5710 5712 5713 5714 5715 5717 5719 5720 5721 5722 5724 5725 5726 5727 5729 5730 5732 5734 5736 5738 5740 5742 5745 5746 5748 5750 5751 5752 5754 5756 5758 5760 5762 5763 5765 5766 5767 5769 5770 5772 5773 5775 5776 5777 5779 5780 5782 5783 5784 5786 5787 5788 5789 5791 5792 5794 5795 5795 5795 5795 5796
5693 5692 5691 5691 5690 5690 5689 5689 5689 5689 5689 5689 5689 5690 5690 5690 5691 5691 5691 5692 5693 5694 5695 5697 5699 5700 5702 5703 5705 5707 5708 5710 5711 5713 5715 5716 5717 5719 5719 5720 5721 5723 5725 5727 5729 5730 5733 5735 5737 5739 5741 5742 5743 5744 5746 5748 5750 5752 5754 5756 5757 5758 5760 5761 5763 5765 5766 5768 5769 5770 5771 5772 5773 5775 5776 5777 5779 5780 5781 5782 5784 5784 5785 5786 5786 5786 5787
5685 5684 5683 5683 5682 5682 5682 5681 5681 5681 5681 5681 5681 5682 5682 5683 5683 5684 5684 5685 5686 5687 5688 5689 5690 5692 5694 5696 5698 5699 5701 5703 5704 5706 5708 5710 5711 5712 5713 5714 5715 5716 5718 5720 5721 5723 5726 5728 5730 5732 5734 5735 5735 5736 5738 5740 5742 5744 5746 5748 5749 5750 5752 5753 5755 5757 5758 5760 5761 5762 5764 5765 5765 5766 5768 5769 5770 5772 5773 5774 5775 5775 5776 5777 5777 5778 5779
5678 5676 5676 5675 5674 5673 5673 5673 5673 5673 5673 5673 5673 5674 5674 5675 5676 5676 5677 5678 5679 5680 5681 5682 5683 5684 5686 5689 5691 5692 5694 5696 5697 5698 5701 5702 5703 5704 5706 5707 5708 5710 5711 5713 5714 5716 5718 5721 5723 5725 5726 5727 5727 5729 5731 5733 5735 5737 5739 5740 5741 5742 5744 5745 5747 5749 5750 5752 5753 5754 5756 5757 5758 5758 5759 5761 5762 5763 5764 5765 5766 5767 5767 5768 5768 5769 5769
5670 5669 5668 5667 5666 5665 5665 5665 5664 5664 5664 5665 5665 5665 5666 5666 5667 5668 5669 5670 5671 5673 5674 5675 5676 5677 5679 5682 5684 5686 5687 5688 5690 5691 5693 5694 5695 5697 5699 5701 5702 5703 5704 5705 5707 5709 5711 5714 5717 5718 5719 5719 5720 5722 5724 5727 5729 5730 5732 5733 5734 5735 5736 5738 5739 5741 5742 5744 5745 5746 5747 5749 5750 5751 5751 5752 5753 5754 5755 5756 5757 5758 5758 5759 5759 5760 5760
5662 5661 5660 5659 5658 5658 5657 5657 5656 5656 5656 5656 5657 5657 5657 5658 5659 5660 5660 5661 5663 5665 5666 5667 5669 5671 5672 5674 5676 5678 5679 5680 5682 5684 5685 5686 5688 5690 5692 5694 5695 5697 5698 5699 5700 5702 5705 5707 5709 5710 5711 5712 5714 5716 5718 5720 5722 5724 5725 5726 5726 5728 5729 5731 5732 5734 5735 5736 5738 5739 5740 5741 5742 5742 5743 5744 5745 5746 5746 5747 5748 5748 5749 5750 5750 5750 5751
5654 5653 5652 5651 5650 5650 5649 5649 5648 5648 5648 5648 5648 5649 5650 5650 5651 5652 5652 5654 5655 5656 5658 5660 5662 5663 5665 5666 5669 5671 5672 5673 5675 5677 5678 5680 5682 5683 5685 5686 5688 5690 5691 5693 5694 5696 5699 5700 5701 5703 5704 5706 5708 5710 5711 5713 5716 5718 5718 5718 5719 5721 5723 5724 5725 5727 5728 5729 5730 5731 5732 5733 5734 5735 5735 5736 5737 5737 5738 5739 5739 5740 5740 5740 5741 5741 5742
5648 5646 5645 5644 5643 5642 5641 5640 5640 5640 5640 5640 5641 5641 5642 5643 5644 5645 5646 5646 5647 5648 5650 5652 5654 5656 5657 5659 5662 5663 5665 5666 5668 5670 5671 5673 5675 5676 5678 5679 5681 5683 5684 5686 5688 5690 5692 5693 5694 5696 5698 5700 5701 5703 5704 5706 5709 5711 5711 5711 5713 5715 5716 5717 5719 5720 5721 5723 5723 5724 5725 5726 5726 5727 5728 5728 5729 5729 5730 5730 5730 5731 5731 5732 5732 5732 5733
5641 5639 5638 5636 5635 5634 5633 5632 5631 5631 5632 5632 5633 5634 5635 5636 5637 5638 5639 5640 5640 5642 5643 5645 5647 5649 5651 5653 5655 5656 5658 5660 5662 5663 5664 5666 5668 5669 5671 5672 5674 5676 5678 5680 5682 5684 5685 5686 5688 5690 5692 5693 5695 5696 5698 5700 5702 5703 5703 5705 5707 5708 5709 5711 5712 5713 5715 5716 5716 5717 5718 5719 5719 5719 5720 5720 5721 5721 5721 5721 5722 5722 5723 5723 5723 5723 5723
5635 5633 5631 5629 5628 5627 5626 5625 5625 5624 5624 5624 5625 5627 5627 5628 5629 5631 5632 5633 5634 5635 5637 5639 5641 5643 5644 5646 5647 5649 5651 5653 5655 5656 5658 5659 5661 5662 5664 5666 5668 5670 5672 5673 5675 5677 5678 5679 5681 5683 5685 5686 5688 5690 5691 5693 5694 5695 5696 5698 5700 5701 5702 5704 5705 5706 5707 5708 5708 5709 5710 5711 5711 5711 5712 5712 5712 5713 5713 5713 5713 5713 5713 5713 5713 5714 5714
5629 5627 5625 5623 5622 5621 5620 5619 5619 5618 5617 5617 5617 5618 5619 5620 5621 5623 5625 5626 5628 5629 5631 5633 5635 5637 5638 5640 5641 5643 5645 5646 5648 5650 5652 5653 5654 5656 5657 5659 5662 5664 5666 5667 5669 5670 5672 5674 5675 5677 5678 5680 5682 5684 5685 5686 5687 5688 5690 5691 5692 5693 5695 5696 5697 5698 5699 5700 5701 5701 5702 5703 5703 5703 5704 5704 5704 5704 5704 5704 5704 5704 5704 5704 5704 5704 5703
5624 5622 5620 5619 5617 5615 5614 5613 5611 5610 5609 5608 5607 5607 5608 5610 5612 5614 5617 5619 5621 5623 5625 5627 5629 5631 5633 5635 5636 5638 5639 5641 5643 5644 5646 5647 5648 5650 5652 5654 5655 5657 5660 5662 5663 5664 5666 5668 5670 5671 5672 5674 5676 5677 5678 5679 5681 5682 5683 5684 5685 5686 5687 5689 5690 5691 5692 5693 5693 5694 5695 5695 5696 5696 5696 5696 5697 5697 5697 5697 5696 5696 5696 5695 5695 5694 5694
5620 5618 5616 5614 5611 5609 5607 5605 5603 5601 5600 5599 5598 5597 5598 5599 5601 5605 5608 5611 5614 5617 5620 5622 5624 5626 5628 5630 5632 5633 5635 5636 5638 5640 5641 5642 5644 5645 5647 5649 5650 5652 5654 5656 5657 5659 5661 5663 5664 5665 5666 5668 5669 5670 5672 5673 5674 5675 5677 5678 5679 5680 5681 5682 5683 5684 5685 5685 5686 5687 5687 5688 5689 5689 5689 5689 5689 5689 5689 5689 5688 5688 5687 5687 5686 5685 5685
5615 5613 5611 5608 5605 5602 5599 5597 5595 5593 5591 5589 5587 5587 5587 5589 5591 5595 5599 5604 5608 5612 5615 5618 5620 5622 5624 5626 5627 5628 5630 5631 5633 5635 5636 5638 5639 5641 5643 5644 5645 5647 5649 5650 5651 5653 5655 5657 5658 5659 5660 5662 5663 5664 5666 5667 5668 5669 5671 5672 5673 5673 5674 5675 5676 5677 5678 5679 5679 5680 5681 5681 5682 5682 5682 5683 5682 5682 5682 5681 5681 5680 5679 5678 5677 5676 5675
5612 5609 5607 5603 5600 5596 5593 5590 5588 5585 5581 5578 5576 5576 5577 5580 5583 5587 5593 5598 5603 5608 5611 5614 5616 5618 5621 5622 5622 5623 5625 5626 5628 5630 5631 5633 5635 5636 5638 5639 5640 5642 5643 5644 5646 5647 5649 5650 5652 5653 5654 5656 5657 5658 5659 5661 5662 5663 5664 5665 5666 5667 5668 5669 5669 5670 5671 5672 5673 5674 5674 5675 5675 5676 5676 5676 5675 5675 5674 5674 5673 5672 5671 5670 5668 5667 5665
5609 5606 5603 5599 5595 5592 5589 5587 5583 5579 5573 5569 5568 5568 5570 5573 5577 5582 5588 5594 5599 5603 5607 5610 5612 5614 5616 5617 5618 5619 5621 5623 5624 5626 5627 5629 5630 5632 5633 5634 5636 5637 5638 5639 5640 5642 5643 5644 5646 5647 5649 5650 5651 5652 5653 5655 5656 5657 5658 5659 5660 5661 5662 5662 5663 5664 5665 5666 5667 5667 5668 5668 5668 5669 5669 5669 5668 5668 5667 5667 5666 5665 5663 5662 5660 5659 5657
5606 5604 5600 5597 5593 5590 5587 5584 5580 5575 5569 5565 5565 5566 5568 5570 5574 5580 5585 5591 5596 5601 5604 5606 5608 5610 5612 5614 5615 5616 5617 5619 5621 5623 5624 5625 5626 5627 5628 5630 5631 5633 5633 5634 5635 5637 5638 5639 5640 5642 5643 5644 5645 5646 5648 5649 5650 5651 5652 5653 5654 5655 5656 5656 5657 5658 5659 5660 5660 5661 5661 5661 5662 5662 5662 5661 5661 5661 5660 5660 5659 5658 5657 5655 5653 5651 5649
5605 5602 5599 5595 5592 5589 5585 5583 5579 5574 5569 5567 5567 5568 5569 5572 5576 5581 5586 5591 5595 5599 5602 5604 5606 5608 5610 5611 5612 5613 5615 5616 5618 5620 5621 5622 5623 5624 5625 5626 5627 5628 5629 5630 5631 5632 5633 5634 5636 5637 5638 5639 5640 5641 5642 5644 5645 5646 5647 5647 5648 5649 5650 5651 5651 5652 5653 5653 5654 5654 5654 5655 5655 5655 5655 5654 5654 5654 5653 5653 5652 5651 5650 5648 5646 5644 5642
5604 5601 5598 5595 5592 5589 5586 5583 5580 5576 5573 5571 5571 5571 5573 5576 5580 5584 5588 5592 5595 5598 5601 5603 5604 5606 5608 5609 5610 5611 5613 5614 5616 5617 5618 5619 5620 5621 5622 5623 5624 5624 5625 5626 5627 5628 5630 5631 5632 5633 5634 5635 5636 5637 5638 5639 5640 5640 5641 5642 5643 5643 5644 5644 5645 5646 5646 5646 5647 5647 5647 5648 5648 5648 5647 5647 5647 5646 5646 5645 5644 5644 5642 5641 5639 5637 5635
5603 5601 5598 5595 5593 5590 5587 5585 5582 5580 5578 5577 5576 5577 5578 5581 5584 5587 5590 5593 5596 5599 5601 5602 5603 5605 5606 5607 5608 5609 5611 5612 5613 5614 5615 5616 5617 5618 5619 5620 5620 5621 5622 5623 5624 5625 5626 5627 5628 5628 5629 5630 5631 5632 5633 5634 5634 5635 5635 5636 5637 5637 5638 5638 5639 5639 5639 5640 5640 5640 5640 5641 5641 5640 5640 5640 5639 5639 5638 5637 5637 5636 5635 5633 5631 5629 5627
5602 5600 5598 5596 5594 5592 5589 5587 5585 5584 5583 5582 5582 5582 5584 5586 5587 5589 5591 5593 5596 5598 5600 5601 5602 5603 5603 5604 5605 5607 5608 5610 5611 5612 5613 5614 5614 5615 5616 5617 5618 5618 5619 5620 5620 5621 5622 5623 5624 5624 5625 5625 5626 5627 5627 5628 5628 5629 5629 5630 5630 5631 5631 5632 5632 5632 5633 5633 5633 5633 5633 5633 5633 5633 5632 5632 5631 5631 5630 5629 5628 5627 5626 5625 5623 5621 5619
5602 5600 5598 5596 5595 5593 5591 5590 5588 5587 5586 5586 5586 5587 5588 5589 5590 5591 5593 5593 5595 5597 5598 5600 5600 5601 5601 5602 5603 5605 5606 5607 5608 5609 5610 5611 5612 5612 5613 5614 5614 5615 5615 5616 5617 5617 5618 5618 5619 5620 5620 5620 5621 5622 5622 5622 5622 5623 5623 5623 5624 5624 5624 5625 5625 5625 5625 5626 5626 5626 5626 5626 5625 5625 5624 5624 5623 5623 5622 5621 5620 5620 5618 5617 5615 5613 5611